Date String (YYYY-MM-DD hh:mm:ss) UTC,Instrument flags,absolute air pressure of the measurement (hPa),sample flow rate (lpm),inlet stack bypass flow (lpm),air temperature of the measurement (°C),ambient temperature measured by the external sensor (°C),aerosol sample conditioner tube jacket temperature (°C),OPC LED temperature (°C),internal box temperature (°C),relative humidity of the measurement (%),span deviation,mass concentration of particles derived from Lorenz-Mie calculation of OPC scattering (μg/m³),mass concentration of particles derived from Lorenz-Mie calculation of OPC scattering (μg/m³),mass concentration of particles derived from Lorenz-Mie calculation of OPC scattering (μg/m³)
DateTimeUTC,F1_M11,P_M11,Q1_M11,Q2_M11,T1_M11,T2_M11,T3_M11,T4_M11,T5_M11,U1_M11,ZSPAN_M11,X0_M11,X2_M11,X1_M11
2024-03-11 07:00:00,SystemResetWarning,0825.9,4.99,000.00,021.3,020.3,000.0,030.0,023.1,06.0,0000.0,0020.72,0005.34,0002.00
2024-03-11 07:01:00,SystemResetWarning,0825.9,5.01,000.00,021.3,020.3,000.0,030.0,023.1,05.9,0000.0,0019.77,0005.25,0002.02
2024-03-11 07:02:00,SystemResetWarning,0825.9,5.00,000.00,021.3,020.3,000.0,029.9,023.1,05.9,0000.0,0019.36,0005.22,0002.05
2024-03-11 07:03:00,SystemResetWarning,0825.9,5.00,000.00,021.3,020.3,000.0,029.9,023.1,06.2,0000.0,0018.74,0005.21,0002.07
2024-03-11 07:04:00,SystemResetWarning,0825.9,5.00,000.00,021.3,020.3,000.0,029.9,023.1,06.2,0000.0,0017.74,0005.22,0002.05
2024-03-11 07:05:00,SystemResetWarning,0825.9,5.01,000.00,021.3,020.3,000.0,029.9,023.1,06.1,0000.0,0017.94,0005.26,0002.08
2024-03-11 07:06:00,SystemResetWarning,0825.9,4.99,000.00,021.3,020.3,000.0,029.9,023.0,06.1,0000.0,0018.06,0005.24,0002.07
2024-03-11 07:07:00,SystemResetWarning,0825.9,4.99,000.00,021.3,020.3,000.0,029.9,023.0,06.2,0000.0,0017.93,0005.18,0002.06
2024-03-11 07:08:00,SystemResetWarning,0825.9,5.01,000.00,021.3,020.3,000.0,029.9,023.0,06.5,0000.0,0016.92,0005.12,0002.07
2024-03-11 07:09:00,SystemResetWarning,0825.9,5.01,000.00,021.2,020.3,000.0,029.9,023.0,06.5,0000.0,0016.08,0005.18,0002.07
2024-03-11 07:10:00,SystemResetWarning,0825.9,5.00,000.00,021.2,020.2,000.0,029.9,023.0,06.4,0000.0,0015.61,0005.10,0002.05
2024-03-11 07:11:00,SystemResetWarning,0825.9,4.99,000.00,021.2,020.2,000.0,029.8,023.0,06.4,0000.0,0015.54,0005.08,0002.07
2024-03-11 07:12:00,SystemResetWarning,0825.9,4.99,000.00,021.2,020.1,000.0,029.8,022.9,06.3,0000.0,0015.88,0005.12,0002.04
2024-03-11 07:13:00,SystemResetWarning,0825.9,5.01,000.00,021.2,020.1,000.0,029.8,022.9,06.2,0000.0,0016.28,0005.15,0002.02
2024-03-11 07:14:00,SystemResetWarning,0825.9,5.01,000.00,021.2,020.1,000.0,029.8,022.9,06.1,0000.0,0016.88,0005.18,0002.00
2024-03-11 07:15:00,SystemResetWarning,0825.9,4.99,000.00,021.2,020.2,000.0,029.8,023.0,06.1,0000.0,0017.08,0005.15,0001.99
2024-03-11 07:16:00,SystemResetWarning,0825.9,5.00,000.00,021.2,020.2,000.0,029.8,023.0,06.1,0000.0,0016.57,0005.18,0001.99
2024-03-11 07:17:00,SystemResetWarning,0826.0,5.00,000.00,021.2,020.2,000.0,029.8,023.0,06.0,0000.0,0016.81,0005.23,0002.02
2024-03-11 07:18:00,SystemResetWarning,0825.9,5.00,000.00,021.2,020.2,000.0,029.8,023.0,06.0,0000.0,0017.69,0005.32,0002.03
2024-03-11 07:19:00,SystemResetWarning,0825.9,5.00,000.00,021.2,020.2,000.0,029.8,022.9,06.1,0000.0,0018.67,0005.42,0002.04
2024-03-11 07:20:00,SystemResetWarning,0825.9,5.00,000.00,021.1,020.2,000.0,029.8,022.9,06.0,0000.0,0019.07,0005.39,0002.05
2024-03-11 07:21:00,SystemResetWarning,0825.9,5.00,000.00,021.1,020.1,000.0,029.8,022.9,06.4,0000.0,0019.95,0005.39,0002.04
2024-03-11 07:22:00,SystemResetWarning,0825.9,5.00,000.00,021.1,020.1,000.0,029.8,022.9,06.2,0000.0,0020.03,0005.34,0002.02
2024-03-11 07:23:00,SystemResetWarning,0825.9,5.00,000.00,021.1,020.1,000.0,029.7,022.9,06.2,0000.0,0019.86,0005.31,0002.06
2024-03-11 07:24:00,SystemResetWarning,0825.9,5.00,000.00,021.1,020.1,000.0,029.7,022.9,06.3,0000.0,0020.00,0005.30,0002.08
2024-03-11 07:25:00,SystemResetWarning,0825.8,5.00,000.00,021.1,020.1,000.0,029.7,022.9,06.3,0000.0,0019.80,0005.32,0002.08
2024-03-11 07:26:00,SystemResetWarning,0825.9,5.00,000.00,021.1,020.1,000.0,029.7,022.9,06.1,0000.0,0020.48,0005.35,0002.09
2024-03-11 07:27:00,SystemResetWarning,0825.9,5.00,000.00,021.1,020.1,000.0,029.7,022.9,06.0,0000.0,0020.55,0005.26,0002.07
2024-03-11 07:28:00,SystemResetWarning,0825.9,5.01,000.00,021.1,020.1,000.0,029.7,022.9,06.0,0000.0,0020.34,0005.25,0002.06
2024-03-11 07:29:00,SystemResetWarning,0825.9,5.00,000.00,021.1,020.2,000.0,029.7,022.9,06.0,0000.0,0019.65,0005.20,0002.06
2024-03-11 07:30:00,SystemResetWarning,0825.9,4.99,000.00,021.1,020.2,000.0,029.7,022.9,06.1,0000.0,0018.65,0005.16,0002.06
2024-03-11 07:31:00,SystemResetWarning,0825.9,4.99,000.00,021.1,020.2,000.0,029.7,022.9,06.4,0000.0,0018.46,0005.14,0002.06
2024-03-11 07:32:00,SystemResetWarning,0825.9,5.00,000.00,021.1,020.2,000.0,029.7,022.9,06.5,0000.0,0017.93,0005.18,0002.08
2024-03-11 07:33:00,SystemResetWarning,0825.9,5.01,000.00,021.1,020.2,000.0,029.7,022.9,06.6,0000.0,0018.02,0005.25,0002.09
2024-03-11 07:34:00,SystemResetWarning,0825.9,5.00,000.00,021.1,020.2,000.0,029.7,022.9,06.7,0000.0,0017.97,0005.28,0002.06
2024-03-11 07:35:00,SystemResetWarning,0825.9,5.01,000.00,021.1,020.2,000.0,029.7,022.9,06.6,0000.0,0017.67,0005.29,0002.06
2024-03-11 07:36:00,SystemResetWarning,0825.9,4.99,000.00,021.1,020.2,000.0,029.7,022.9,06.5,0000.0,0018.65,0005.31,0002.08
2024-03-11 07:37:00,SystemResetWarning,0826.0,4.99,000.00,021.1,020.2,000.0,029.7,022.9,06.5,0000.0,0018.09,0005.34,0002.11
2024-03-11 07:38:00,SystemResetWarning,0825.9,5.00,000.00,021.1,020.2,000.0,029.6,022.9,06.7,0000.0,0019.17,0005.49,0002.13
2024-03-11 07:39:00,SystemResetWarning,0826.0,5.01,000.00,021.1,020.2,000.0,029.7,022.9,06.7,0000.0,0018.99,0005.51,0002.15
2024-03-11 07:40:00,SystemResetWarning,0826.0,5.00,000.00,021.1,020.2,000.0,029.7,022.9,06.7,0000.0,0018.72,0005.53,0002.17
2024-03-11 07:41:00,SystemResetWarning,0825.9,4.99,000.00,021.1,020.2,000.0,029.6,022.9,06.6,0000.0,0018.87,0005.52,0002.16
2024-03-11 07:42:00,SystemResetWarning,0825.9,4.99,000.00,021.1,020.2,000.0,029.6,022.9,06.6,0000.0,0018.99,0005.62,0002.15
2024-03-11 07:43:00,SystemResetWarning,0825.9,4.99,000.00,021.1,020.3,000.0,029.6,022.9,06.6,0000.0,0019.38,0005.67,0002.14
2024-03-11 07:44:00,SystemResetWarning,0825.9,5.01,000.00,021.1,020.3,000.0,029.6,022.9,06.5,0000.0,0019.65,0005.66,0002.13
2024-03-11 07:45:00,SystemResetWarning,0825.9,5.01,000.00,021.1,020.3,000.0,029.6,022.9,06.7,0000.0,0019.65,0005.63,0002.14
2024-03-11 07:46:00,SystemResetWarning,0825.9,5.01,000.00,021.1,020.3,000.0,029.6,023.0,06.6,0000.0,0020.11,0005.60,0002.13
2024-03-11 07:47:00,SystemResetWarning,0825.9,4.99,000.00,021.1,020.3,000.0,029.6,023.0,06.5,0000.0,0019.60,0005.61,0002.10
2024-03-11 07:48:00,SystemResetWarning,0825.9,4.99,000.00,021.1,020.3,000.0,029.6,023.0,06.5,0000.0,0019.81,0005.64,0002.08
2024-03-11 07:49:00,SystemResetWarning,0825.9,5.00,000.00,021.1,020.3,000.0,029.6,022.9,06.6,0000.0,0018.31,0005.58,0002.07
2024-03-11 07:50:00,SystemResetWarning,0825.9,5.00,000.00,021.1,020.3,000.0,029.6,022.9,06.6,0000.0,0018.05,0005.52,0002.06
2024-03-11 07:51:00,SystemResetWarning,0825.9,5.00,000.00,021.1,020.3,000.0,029.6,022.9,06.5,0000.0,0018.17,0005.49,0002.05
2024-03-11 07:52:00,SystemResetWarning,0825.9,5.01,000.00,021.1,020.2,000.0,029.7,022.9,06.4,0000.0,0018.60,0005.49,0002.06
2024-03-11 07:53:00,SystemResetWarning,0825.9,5.01,000.00,021.1,020.3,000.0,029.6,022.9,06.4,0000.0,0019.44,0005.42,0002.06
2024-03-11 07:54:00,SystemResetWarning,0825.9,5.01,000.00,021.1,020.3,000.0,029.6,022.9,06.4,0000.0,0019.16,0005.38,0002.07
2024-03-11 07:55:00,SystemResetWarning,0825.9,4.99,000.00,021.1,020.3,000.0,029.6,022.9,06.4,0000.0,0018.70,0005.35,0002.07
2024-03-11 07:56:00,SystemResetWarning,0825.9,4.99,000.00,021.1,020.3,000.0,029.6,022.9,06.4,0000.0,0019.05,0005.37,0002.05
2024-03-11 07:57:00,SystemResetWarning,0825.9,5.00,000.00,021.1,020.2,000.0,029.6,022.9,06.4,0000.0,0018.97,0005.39,0002.03
2024-03-11 07:58:00,SystemResetWarning,0825.9,5.00,000.00,021.1,020.2,000.0,029.6,022.9,06.4,0000.0,0018.39,0005.27,0002.03
2024-03-11 07:59:00,SystemResetWarning,0825.9,5.00,000.00,021.1,020.2,000.0,029.6,022.9,06.4,0000.0,0017.86,0005.13,0002.04
